Weather History for Ogden, UT

Change the Weather History Date:

Thursday, September 5, 2013

  Actual Average Record
Temperature  
Mean Temperature 81 °F -  
Max Temperature 91 °F 85 °F 95 °F (1947)
Min Temperature 72 °F 52 °F 40 °F (1968)
Cooling Degree Days 16    
Growing Degree Days 31 (Base 50)    
Moisture  
Dew Point 51 °F    
Average Humidity 37    
Maximum Humidity 55    
Minimum Humidity 26    
Precipitation  
Precipitation 0.00 in - - ()
Sea Level Pressure  
Sea Level Pressure 29.92 in    
Wind  
Wind Speed 6 mph (SSE)    
Max Wind Speed 12 mph    
Max Gust Speed -    
Visibility 10 miles    
Events      
Averages and records for this station are not official NWS values.
T = Trace of Precipitation, MM = Missing Value Source: NWS Daily Summary

Daily Weather History Graph

Daily Weather History Graph

Search for Another Location

Airport:

Trip Planner

Search our weather history database for the weather conditions in past years. The results will help you decide how hot, cold, wet, or windy it might be!

Date:

Astronomy

Sep. 05, 2013 Rise Set
Actual Time 6:58 AM MDT 7:53 PM MDT
Civil Twilight 6:30 AM MDT 8:21 PM MDT
Nautical Twilight 5:57 AM MDT 8:54 PM MDT
Astronomical Twilight 5:22 AM MDT 9:29 PM MDT
Moon 7:14 AM MDT (9/5) 7:46 PM MDT (9/5)
Length of Visible Light 13h 50m
Length of Day
12h 54m
New Moon, 0% of the Moon is Illuminated
Sep 5
New Moon
Sep 12
First Quarter
Sep 19
Full
Sep 26
Last Quarter
Oct 4
New

Hourly Weather History & Observations

Time (MDT) Temp. Heat Index Dew Point Humidity Pressure Visibility Wind Dir Wind Speed Gust Speed Precip Events Conditions
12:53 AM 75.0 °F - 57.9 °F 55% 29.97 in 10.0 mi South 5.8 mph - N/A   Partly Cloudy
1:53 AM 73.9 °F - 54.0 °F 50% 29.96 in 10.0 mi Calm Calm - N/A   Clear
2:53 AM 73.0 °F - 54.0 °F 51% 29.96 in 10.0 mi South 4.6 mph - 0.00 in   Partly Cloudy
3:53 AM 73.9 °F - 52.0 °F 46% 29.95 in 10.0 mi SE 8.1 mph - N/A   Clear
4:53 AM 73.9 °F - 52.0 °F 46% 29.95 in 10.0 mi South 8.1 mph - N/A   Clear
5:53 AM 73.0 °F - 51.1 °F 46% 29.93 in 10.0 mi South 6.9 mph - N/A   Clear
6:53 AM 73.9 °F - 50.0 °F 43% 29.94 in 10.0 mi SW 3.5 mph - N/A   Partly Cloudy
7:53 AM 72.0 °F - 50.0 °F 46% 29.99 in 10.0 mi South 11.5 mph - N/A   Clear
8:53 AM 75.0 °F - 51.1 °F 43% 29.99 in 10.0 mi SSE 5.8 mph - N/A   Clear
9:53 AM 79.0 °F - 51.1 °F 38% 29.99 in 10.0 mi SE 9.2 mph - N/A   Clear
10:53 AM 82.0 °F - 51.1 °F 34% 29.98 in 10.0 mi SSE 8.1 mph - N/A   Clear
11:53 AM 84.0 °F - 50.0 °F 31% 29.96 in 10.0 mi SE 5.8 mph - N/A   Clear
12:53 PM 86.0 °F - 50.0 °F 29% 29.95 in 10.0 mi Calm Calm - N/A   Clear
1:53 PM 88.0 °F - 50.0 °F 27% 29.94 in 10.0 mi SSW 9.2 mph - N/A   Clear
2:53 PM 89.1 °F - 52.0 °F 28% 29.91 in 10.0 mi Variable 5.8 mph - N/A   Clear
3:53 PM 89.1 °F - 50.0 °F 26% 29.88 in 10.0 mi Variable 3.5 mph - N/A   Clear
4:53 PM 89.1 °F - 50.0 °F 26% 29.86 in 10.0 mi Calm Calm - N/A   Clear
5:53 PM 90.0 °F - 51.1 °F 26% 29.85 in 10.0 mi NW 4.6 mph - N/A   Clear
6:53 PM 90.0 °F - 51.1 °F 26% 29.84 in 10.0 mi NNW 3.5 mph - N/A   Clear
7:53 PM 87.1 °F - 50.0 °F 28% 29.83 in 10.0 mi ESE 3.5 mph - N/A   Clear
8:53 PM 81.0 °F 80.5 °F 54.0 °F 39% 29.86 in 10.0 mi South 6.9 mph - N/A   Clear
9:53 PM 82.0 °F - 51.1 °F 34% 29.86 in 10.0 mi SSE 6.9 mph - N/A   Clear
10:53 PM 78.1 °F - 50.0 °F 37% 29.87 in 10.0 mi South 9.2 mph - N/A   Clear
11:53 PM 78.1 °F - 51.1 °F 39% 29.87 in 10.0 mi SSE 10.4 mph - N/A   Clear